Date String (YYYY-MM-DD hh:mm:ss) UTC,Instrument flags,Ambient pressure (hPa),Sample flow (lpm),Bypass flow (lpm),Sample temperature (°C),Ambient temperature (°C),ASC tube jacket temperature (°C),LED temperature (°C),Box temperature (°C),Sample RH (%),Span deviation,Mass concentration (μg/m³),Mass concentration (μg/m³),Mass concentration (μg/m³)
DateTimeUTC,F1_M11,P_M11,Q1_M11,Q2_M11,T1_M11,T2_M11,T3_M11,T4_M11,T5_M11,U1_M11,ZSPAN_M11,X0_M11,X2_M11,X1_M11
2022-04-22 07:00:00,,0817.8,4.98,0.00,30.2,29.3,00.0,39.1,32.0,07.6,0000.0,0016.54,0006.92,0004.69
2022-04-22 07:01:00,,0817.7,5.01,0.00,30.3,29.4,00.0,39.1,32.0,07.5,0000.0,0016.76,0006.94,0004.70
2022-04-22 07:02:00,,0817.7,4.99,0.00,30.3,29.4,00.0,39.2,32.0,07.1,0000.0,0016.93,0006.91,0004.70
2022-04-22 07:03:00,,0817.7,5.02,0.00,30.3,29.4,00.0,39.2,32.0,07.0,0000.0,0016.23,0006.89,0004.69
2022-04-22 07:04:00,,0817.7,4.99,0.00,30.3,29.4,00.0,39.2,32.0,07.0,0000.0,0015.57,0006.83,0004.67
2022-04-22 07:05:00,,0817.7,4.98,0.00,30.3,29.4,00.0,39.2,32.0,06.9,0000.0,0014.54,0006.75,0004.65
2022-04-22 07:06:00,,0817.7,5.01,0.00,30.3,29.4,00.0,39.2,32.0,06.9,0000.0,0014.51,0006.74,0004.63
2022-04-22 07:07:00,,0817.7,4.99,0.00,30.3,29.4,00.0,39.2,32.0,06.9,0000.0,0014.51,0006.79,0004.61
2022-04-22 07:08:00,,0817.7,5.00,0.00,30.3,29.4,00.0,39.2,32.0,06.8,0000.7,0014.41,0006.74,0004.55
2022-04-22 07:09:00,,0817.7,5.01,0.00,30.3,29.3,00.0,39.2,32.0,06.8,0000.0,0015.07,0006.65,0004.50
2022-04-22 07:10:00,,0817.7,4.99,0.00,30.3,29.3,00.0,39.2,32.0,06.8,0000.0,0015.47,0006.61,0004.46
2022-04-22 07:11:00,,0817.7,5.01,0.00,30.2,29.3,00.0,39.2,32.0,06.8,0000.1,0015.57,0006.57,0004.42
2022-04-22 07:12:00,,0817.7,5.00,0.00,30.2,29.2,00.0,39.2,31.9,06.8,0001.8,0015.27,0006.49,0004.37
2022-04-22 07:13:00,,0817.7,5.00,0.00,30.2,29.2,00.0,39.2,31.9,06.8,0002.7,0015.17,0006.45,0004.34
2022-04-22 07:14:00,,0817.7,5.01,0.00,30.2,29.2,00.0,39.2,31.8,07.1,0002.2,0015.30,0006.48,0004.32
2022-04-22 07:15:00,,0817.6,4.99,0.00,30.2,29.2,00.0,39.2,31.9,07.5,0003.0,0015.48,0006.50,0004.31
2022-04-22 07:16:00,,0817.7,5.00,0.00,30.2,29.2,00.0,39.2,31.9,07.6,0001.7,0015.48,0006.53,0004.31
2022-04-22 07:17:00,,0817.7,5.00,0.00,30.2,29.2,00.0,39.1,31.9,07.3,0003.2,0015.14,0006.48,0004.30
2022-04-22 07:18:00,,0817.7,4.99,0.00,30.2,29.3,00.0,39.1,31.9,07.7,0000.0,0015.08,0006.41,0004.30
2022-04-22 07:19:00,,0817.7,5.02,0.00,30.2,29.3,00.0,39.1,31.9,07.9,0000.0,0015.66,0006.48,0004.32
2022-04-22 07:20:00,,0817.6,5.00,0.00,30.2,29.3,00.0,39.1,31.9,08.0,0000.0,0015.76,0006.57,0004.38
2022-04-22 07:21:00,,0817.6,4.98,0.00,30.2,29.3,00.0,39.1,31.9,07.7,0000.0,0015.22,0006.58,0004.41
2022-04-22 07:22:00,,0817.6,5.00,0.00,30.2,29.3,00.0,39.1,31.9,07.2,0000.0,0014.87,0006.54,0004.41
2022-04-22 07:23:00,,0817.6,5.01,0.00,30.2,29.3,00.0,39.1,31.9,07.3,0000.0,0014.80,0006.55,0004.38
2022-04-22 07:24:00,,0817.6,4.99,0.00,30.2,29.3,00.0,39.1,31.9,07.5,0000.0,0015.18,0006.57,0004.38
2022-04-22 07:25:00,,0817.7,5.01,0.00,30.1,29.3,00.0,39.1,31.8,07.9,0000.0,0015.31,0006.60,0004.39
2022-04-22 07:26:00,,0817.7,5.01,0.00,30.1,29.3,00.0,39.1,31.8,08.0,0000.0,0015.21,0006.63,0004.41
2022-04-22 07:27:00,,0817.6,4.99,0.00,30.1,29.3,00.0,39.1,31.8,08.1,0000.0,0015.11,0006.60,0004.42
2022-04-22 07:28:00,,0817.6,5.00,0.00,30.1,29.3,00.0,39.1,31.9,08.1,0000.0,0015.17,0006.62,0004.45
2022-04-22 07:29:00,,0817.7,5.00,0.00,30.1,29.3,00.0,39.1,31.9,08.2,0000.0,0015.25,0006.70,0004.48
2022-04-22 07:30:00,,0817.5,4.99,0.00,30.1,29.3,00.0,39.1,31.9,08.3,0000.0,0015.04,0006.72,0004.51
2022-04-22 07:31:00,,0817.5,5.02,0.00,30.1,29.3,00.0,39.1,31.9,08.1,0000.0,0014.27,0006.67,0004.52
2022-04-22 07:32:00,,0817.5,4.99,0.00,30.1,29.3,00.0,39.1,31.9,07.6,0000.0,0014.07,0006.61,0004.50
2022-04-22 07:33:00,,0817.5,5.00,0.00,30.2,29.3,00.0,39.1,31.9,07.6,0000.0,0014.39,0006.66,0004.52
2022-04-22 07:34:00,,0817.5,5.01,0.00,30.2,29.3,00.0,39.1,31.9,07.5,0000.0,0015.19,0006.66,0004.57
2022-04-22 07:35:00,,0817.6,5.00,0.00,30.2,29.3,00.0,39.1,31.9,07.2,0000.0,0014.70,0006.68,0004.57
2022-04-22 07:36:00,,0817.6,4.99,0.00,30.2,29.3,00.0,39.1,31.9,07.1,0000.0,0014.30,0006.62,0004.55
2022-04-22 07:37:00,,0817.5,5.02,0.00,30.2,29.3,00.0,39.1,31.9,07.1,0000.0,0014.20,0006.57,0004.52
2022-04-22 07:38:00,,0817.4,4.99,0.00,30.2,29.3,00.0,39.1,31.9,07.1,0000.5,0014.67,0006.58,0004.49
2022-04-22 07:39:00,,0817.4,4.99,0.00,30.1,29.3,00.0,39.1,31.9,06.7,0001.0,0014.96,0006.51,0004.43
2022-04-22 07:40:00,,0817.4,5.02,0.00,30.1,29.3,00.0,39.1,31.9,07.0,0002.9,0014.87,0006.42,0004.36
2022-04-22 07:41:00,,0817.4,4.99,0.00,30.1,29.2,00.0,39.1,31.8,07.8,0002.9,0015.10,0006.35,0004.33
2022-04-22 07:42:00,,0817.4,4.99,0.00,30.1,29.2,00.0,39.1,31.8,08.5,0000.6,0015.08,0006.35,0004.32
2022-04-22 07:43:00,,0817.5,5.02,0.00,30.1,29.2,00.0,39.1,31.8,08.7,0002.0,0015.71,0006.38,0004.34
2022-04-22 07:44:00,,0817.5,4.99,0.00,30.1,29.2,00.0,39.1,31.8,08.8,0004.2,0015.84,0006.41,0004.36
2022-04-22 07:45:00,,0817.5,5.00,0.00,30.1,29.2,00.0,39.1,31.9,08.7,0003.9,0014.96,0006.46,0004.39
2022-04-22 07:46:00,,0817.5,5.00,0.00,30.1,29.3,00.0,39.1,31.9,08.6,0003.6,0015.08,0006.46,0004.44
2022-04-22 07:47:00,,0817.5,5.00,0.00,30.1,29.3,00.0,39.1,31.9,08.8,0004.0,0015.68,0006.57,0004.52
2022-04-22 07:48:00,,0817.6,5.00,0.00,30.2,29.3,00.0,39.1,31.9,08.9,0003.8,0015.89,0006.66,0004.59
2022-04-22 07:49:00,,0817.5,5.02,0.00,30.2,29.3,00.0,39.1,31.9,09.2,0004.0,0015.94,0006.74,0004.68
2022-04-22 07:50:00,,0817.5,4.99,0.00,30.2,29.3,00.0,39.1,31.9,09.1,0003.7,0016.30,0006.93,0004.79
2022-04-22 07:51:00,,0817.5,5.01,0.00,30.2,29.3,00.0,39.1,31.9,08.7,0003.9,0016.79,0007.07,0004.90
2022-04-22 07:52:00,,0817.5,5.00,0.00,30.2,29.3,00.0,39.1,31.9,08.6,0004.0,0016.56,0007.15,0004.93
2022-04-22 07:53:00,,0817.5,5.00,0.00,30.2,29.3,00.0,39.1,31.9,09.0,0003.9,0016.88,0007.30,0004.97
2022-04-22 07:54:00,,0817.5,5.00,0.00,30.2,29.3,00.0,39.1,31.9,09.1,0003.7,0018.00,0007.47,0005.02
2022-04-22 07:55:00,,0817.5,4.99,0.00,30.2,29.3,00.0,39.1,31.9,09.2,0003.5,0017.98,0007.63,0005.08
2022-04-22 07:56:00,,0817.5,5.00,0.00,30.2,29.3,00.0,39.1,31.9,09.2,0002.7,0018.60,0007.75,0005.12
2022-04-22 07:57:00,,0817.4,5.01,0.00,30.2,29.3,00.0,39.1,31.9,08.8,0000.0,0019.67,0007.86,0005.15
2022-04-22 07:58:00,,0817.4,4.99,0.00,30.2,29.4,00.0,39.1,31.9,08.5,0001.3,0019.61,0007.84,0005.16
2022-04-22 07:59:00,,0817.4,5.00,0.00,30.2,29.4,00.0,39.1,31.9,08.9,0002.7,0020.93,0007.93,0005.15
